Weather History for KCMX - April, 2013

Change the Weather History Date:

Monday, April 1, 2013

  Actual Average Record
Temperature  
Mean Temperature 22 °F -  
Max Temperature 27 °F 37 °F 62 °F (1986)
Min Temperature 17 °F 24 °F 9 °F (1964)
Degree Days  
Heating Degree Days 44    
Moisture  
Dew Point 10 °F    
Average Humidity 66    
Maximum Humidity 84    
Minimum Humidity 44    
Precipitation  
Precipitation 0.00 in - - ()
Sea Level Pressure  
Sea Level Pressure 29.99 in    
Wind  
Wind Speed 18 mph (NW)    
Max Wind Speed 24 mph    
Max Gust Speed 33 mph    
Visibility 5 miles    
Events Snow    
Averages and records for this station are not official NWS values.
T = Trace of Precipitation, MM = Missing Value Source: NWS Daily Summary

Daily Weather History Graph

Daily Weather History Graph

Search for Another Location

Airport or City:

Trip Planner

Search our weather history database for the weather conditions in past years. The results will help you decide how hot, cold, wet, or windy it might be!

Date:

Astronomy

Apr. 01, 2013 Rise Set
Actual Time 7:32 AM EDT 8:23 PM EDT
Civil Twilight 7:01 AM EDT 8:54 PM EDT
Nautical Twilight 6:24 AM EDT 9:31 PM EDT
Astronomical Twilight 5:45 AM EDT 10:10 PM EDT
Moon 1:49 AM EDT (4/1) 11:01 AM EDT (4/1)
Length of Visible Light 13h 53m
Length of Day
12h 51m
Waning Gibbous, 67% of the Moon is Illuminated
Apr 1
Waning Gibbous
Apr 3
Last Quarter
Apr 10
New
Apr 18
First Quarter
Apr 25
Full

Hourly Weather History & Observations

Time (EDT) Temp. Windchill Dew Point Humidity Pressure Visibility Wind Dir Wind Speed Gust Speed Precip Events Conditions
12:49 AM 21.2 °F 5.6 °F 12.2 °F 68% 29.86 in 1.8 mi NNW 20.7 mph 29.9 mph 0.00 in Snow Light Snow
12:53 AM 19.9 °F 4.8 °F 12.9 °F 74% 29.91 in 2.0 mi NNW 18.4 mph 26.5 mph 0.00 in Snow Light Snow
1:00 AM 19.4 °F 2.8 °F 12.2 °F 74% 29.86 in 1.8 mi North 21.9 mph 28.8 mph 0.00 in Snow Light Snow
1:09 AM 19.4 °F 4.1 °F 10.4 °F 68% 29.86 in 2.0 mi North 18.4 mph 31.1 mph 0.00 in Snow Light Snow
1:19 AM 19.4 °F 6.0 °F 10.4 °F 68% 29.87 in 5.0 mi North 13.8 mph 26.5 mph 0.00 in   Haze
1:30 AM 19.4 °F 4.1 °F 10.4 °F 68% 29.87 in 6.0 mi North 18.4 mph 24.2 mph 0.00 in   Haze
1:53 AM 19.9 °F 3.5 °F 8.1 °F 60% 29.93 in 9.0 mi North 21.9 mph 28.8 mph 0.00 in   Overcast
2:53 AM 19.0 °F 3.6 °F 9.0 °F 65% 29.94 in 6.0 mi NNW 18.4 mph 28.8 mph 0.00 in   Overcast
3:53 AM 19.4 °F 4.1 °F 8.6 °F 63% 29.90 in 5.0 mi NNW 18.4 mph 26.5 mph N/A Snow Light Snow
4:04 AM 19.4 °F 2.5 °F 6.8 °F 58% 29.90 in 2.5 mi NNW 23.0 mph 29.9 mph 0.00 in Snow Light Snow
4:13 AM 19.4 °F 3.2 °F 6.8 °F 58% 29.90 in 6.0 mi NNW 20.7 mph 29.9 mph 0.00 in   Overcast
4:53 AM 19.0 °F 4.0 °F 7.0 °F 59% 29.96 in 8.0 mi NNW 17.3 mph 31.1 mph 0.00 in   Overcast
5:53 AM 19.0 °F 4.5 °F 8.1 °F 62% 29.98 in 10.0 mi NNW 16.1 mph - 0.00 in   Overcast
6:53 AM 19.0 °F 4.5 °F 9.0 °F 65% 29.99 in 6.0 mi NNW 16.1 mph - 0.00 in Snow Light Snow
7:09 AM 17.6 °F 2.7 °F 10.4 °F 73% 29.93 in 4.0 mi NNW 16.1 mph 23.0 mph 0.00 in Snow Light Snow
7:35 AM 17.6 °F 3.7 °F 12.2 °F 79% 29.94 in 1.8 mi North 13.8 mph 20.7 mph 0.00 in Snow Light Snow
7:53 AM 17.1 °F 4.3 °F 12.9 °F 84% 30.01 in 1.5 mi NNW 11.5 mph - 0.00 in Snow Light Snow
8:12 AM 17.6 °F 5.0 °F 12.2 °F 79% 29.95 in 1.2 mi NNW 11.5 mph - 0.00 in Snow Light Snow
8:38 AM 17.6 °F 2.7 °F 12.2 °F 79% 29.96 in 2.5 mi NNW 16.1 mph - 0.00 in Snow Light Snow
8:46 AM 17.6 °F 1.7 °F 10.4 °F 73% 29.96 in 4.0 mi NNW 18.4 mph 27.6 mph 0.00 in Snow Light Snow
8:53 AM 17.1 °F 2.0 °F 10.0 °F 74% 30.02 in 3.0 mi NNW 16.1 mph 25.3 mph 0.00 in   Overcast
9:07 AM 17.6 °F 1.3 °F 10.4 °F 73% 29.97 in 4.0 mi NNW 19.6 mph 27.6 mph 0.00 in Snow Light Snow
9:39 AM 17.6 °F 2.2 °F 10.4 °F 73% 29.97 in 4.0 mi NNW 17.3 mph 23.0 mph 0.00 in Snow Light Snow
9:53 AM 17.1 °F 1.0 °F 10.0 °F 74% 30.04 in 2.5 mi NNW 18.4 mph 25.3 mph 0.00 in Snow Light Snow
10:48 AM 17.6 °F 2.7 °F 8.6 °F 68% 29.98 in 3.0 mi NNW 16.1 mph 28.8 mph 0.00 in Snow Light Snow
10:53 AM 18.0 °F 1.7 °F 10.0 °F 71% 30.04 in 3.0 mi NNW 19.6 mph 25.3 mph 0.00 in Snow Light Snow
11:05 AM 17.6 °F 1.3 °F 10.4 °F 73% 29.99 in 2.5 mi NNW 19.6 mph 24.2 mph 0.00 in Snow Light Snow
11:21 AM 17.6 °F 3.2 °F 10.4 °F 73% 29.99 in 3.0 mi NNW 15.0 mph - 0.00 in Snow Light Snow
11:29 AM 17.6 °F 2.7 °F 10.4 °F 73% 29.99 in 1.8 mi NNW 16.1 mph 25.3 mph 0.00 in Snow Light Snow
11:44 AM 17.6 °F 0.9 °F 10.4 °F 73% 30.00 in 0.8 mi NW 20.7 mph 29.9 mph 0.00 in Snow Light Snow
11:53 AM 18.0 °F 2.2 °F 10.0 °F 71% 30.06 in 1.2 mi NNW 18.4 mph - 0.00 in Snow Light Snow
12:49 PM 17.6 °F 2.2 °F 8.6 °F 68% 30.01 in 3.0 mi NW 17.3 mph - 0.00 in   Overcast
12:50 PM 18.0 °F 3.1 °F 8.1 °F 65% 30.07 in 3.0 mi NW 16.1 mph - 0.00 in   Overcast
1:14 PM 17.6 °F 0.1 °F 8.6 °F 68% 30.01 in 3.0 mi NW 23.0 mph 27.6 mph 0.00 in Snow Light Snow
1:22 PM 17.6 °F 1.3 °F 8.6 °F 68% 30.01 in 2.0 mi NW 19.6 mph 28.8 mph 0.00 in   Overcast
1:32 PM 19.4 °F 3.2 °F 8.6 °F 63% 30.01 in 4.0 mi NW 20.7 mph 29.9 mph 0.00 in   Overcast
1:53 PM 19.0 °F 2.4 °F 9.0 °F 65% 30.08 in 4.0 mi WNW 21.9 mph - 0.00 in Snow Light Snow
2:53 PM 21.0 °F 6.2 °F 8.1 °F 57% 30.07 in 10.0 mi WNW 18.4 mph - 0.00 in   Mostly Cloudy
3:53 PM 23.0 °F 6.9 °F 9.0 °F 55% 30.07 in 10.0 mi West 24.2 mph 29.9 mph N/A   Overcast
4:53 PM 24.1 °F 9.8 °F 10.9 °F 57% 30.06 in 10.0 mi West 19.6 mph 29.9 mph N/A   Overcast
5:53 PM 26.1 °F 11.3 °F 10.9 °F 53% 30.05 in 10.0 mi West 23.0 mph 33.4 mph N/A   Overcast
6:53 PM 26.1 °F 12.3 °F 10.9 °F 53% 30.05 in 10.0 mi West 19.6 mph 27.6 mph N/A   Clear
7:53 PM 26.1 °F 12.7 °F 12.9 °F 58% 30.04 in 10.0 mi West 18.4 mph - N/A   Mostly Cloudy
8:53 PM 25.0 °F 13.6 °F 10.0 °F 53% 30.05 in 10.0 mi NW 12.7 mph - N/A   Mostly Cloudy
9:53 PM 26.1 °F 15.6 °F 10.0 °F 51% 30.06 in 10.0 mi NW 11.5 mph - N/A   Overcast
10:53 PM 26.1 °F 15.0 °F 7.0 °F 44% 30.07 in 10.0 mi NNW 12.7 mph 20.7 mph N/A   Overcast
11:53 PM 25.0 °F 13.1 °F 6.1 °F 45% 30.08 in 10.0 mi NNW 13.8 mph - N/A   Clear